Location: Bakhuizen
(52.8696°N, 5.4575°E)
Time: 23:10:34
(UTC+00:00)

Cosmos 2341 Rocket - Pass Details

Date: 11 May 2021
Orbit: 968 x 1004 km, 82.9° (Epoch: 24 June)

Event Time Altitude Azimuth Distance (km) Brightness Sun altitude
Rises 21:51:05 0° 349° (N) 3,744 8.6 -15.6°
Reaches altitude 10° 21:53:38 10° 351° (N) 2,792 7.6 -15.7°
Maximum altitude 22:00:05 78° 78° (ENE) 1,031 4.1 -16.1°
Enters shadow 22:04:06 25° 163° (SSE) 1,924 4.9 -16.4°
